Ketchikan, AK

2:14 PM AKDT on July 22, 2018 (GMT -0800)
Ketchikan International

Weather History for PAKT - July, 2018

Change the Weather History Date:

Monday, July 16, 2018

  Actual Average Record
Temperature  
Mean Temperature 57 °F -  
Max Temperature 59 °F 63 °F 79 °F (1958)
Min Temperature 55 °F 50 °F 42 °F (1973)
Degree Days  
Heating Degree Days 8    
Growing Degree Days 7 (Base 50)    
Moisture  
Dew Point 54 °F    
Average Humidity 93    
Maximum Humidity 94    
Minimum Humidity 88    
Precipitation  
Precipitation 0.05 in - - ()
Sea Level Pressure  
Sea Level Pressure 30.12 in    
Wind  
Wind Speed 11 mph (SE)    
Max Wind Speed 16 mph    
Max Gust Speed -    
Visibility 6 miles    
Events Rain    
Averages and records for this station are not official NWS values.
T = Trace of Precipitation, MM = Missing Value Source: NWS Daily Summary

Daily Weather History Graph

Daily Weather History Graph

Search for Another Location

Airport or City:

Astronomy

Jul. 16, 2018 Rise Set
Actual Time 4:27 AM AKDT 9:17 PM AKDT
Civil Twilight 3:34 AM AKDT 10:10 PM AKDT
Nautical Twilight 1:59 AM AKDT 11:42 PM AKDT
Astronomical Twilight Sun does not set Sun does not set
Moon 9:23 AM AKDT (7/16) 11:22 PM AKDT (7/16)
Length of Visible Light 18h 36m
Length of Day
16h 49m
Waxing Crescent, 19% of the Moon is Illuminated
Jul 16
Waxing Crescent
Jul 19
First Quarter
Jul 27
Full
Aug 4
Last Quarter
Aug 11
New

Hourly Weather History & Observations

Time (AKDT) Temp. Dew Point Humidity Pressure Visibility Wind Dir Wind Speed Gust Speed Precip Events Conditions
12:28 AM 55.9 °F 53.1 °F 90% 30.14 in 2.0 mi ESE 11.5 mph - N/A   Overcast
12:53 AM 55.0 °F 53.1 °F 93% 30.15 in 4.0 mi SE 8.1 mph - N/A   Overcast
1:24 AM 55.0 °F 53.1 °F 93% 30.14 in 5.0 mi SE 9.2 mph - 0.00 in Rain Light Rain
1:50 AM 55.4 °F 53.6 °F 94% 30.14 in 4.0 mi SE 9.2 mph - 0.01 in Rain Light Rain
1:53 AM 55.0 °F 53.1 °F 93% 30.14 in 4.0 mi ESE 10.4 mph - 0.01 in Rain Light Rain
2:53 AM 55.0 °F 53.1 °F 93% 30.12 in 6.0 mi SE 10.4 mph - 0.01 in Rain Light Rain
3:53 AM 55.9 °F 53.1 °F 90% 30.12 in 10.0 mi SE 11.5 mph - 0.00 in   Overcast
4:53 AM 55.9 °F 53.1 °F 90% 30.11 in 7.0 mi SE 9.2 mph - 0.01 in   Overcast
5:00 AM 55.9 °F 54.0 °F 93% 30.10 in 4.0 mi SE 9.2 mph - N/A   Overcast
5:31 AM 55.9 °F 54.0 °F 93% 30.10 in 2.5 mi SE 13.8 mph - 0.01 in   Overcast
5:51 AM 55.4 °F 53.6 °F 94% 30.10 in 4.0 mi ESE 12.7 mph - 0.01 in Rain Light Rain
5:53 AM 55.9 °F 54.0 °F 93% 30.11 in 4.0 mi ESE 11.5 mph - 0.01 in Rain Light Rain
5:59 AM 55.4 °F 53.6 °F 94% 30.10 in 3.0 mi ESE 11.5 mph - N/A Rain Light Rain
6:53 AM 55.4 °F 53.6 °F 94% 30.10 in 3.0 mi SE 15.0 mph - N/A Rain Light Rain
7:01 AM 55.4 °F 53.6 °F 94% 30.10 in 8.0 mi SE 12.7 mph - N/A Rain Light Rain
7:53 AM 55.4 °F 53.6 °F 94% 30.11 in 3.0 mi SE 13.8 mph - N/A Rain Light Rain
8:53 AM 55.4 °F 53.6 °F 94% 30.11 in 4.0 mi SE 12.7 mph - N/A Rain Light Rain
9:53 AM 57.2 °F 55.4 °F 94% 30.12 in 3.0 mi SE 12.7 mph - N/A Rain Rain
10:53 AM 57.2 °F 55.4 °F 94% 30.12 in 10.0 mi SE 13.8 mph - N/A Rain Light Rain
11:53 AM 57.2 °F 55.4 °F 94% 30.12 in 10.0 mi SE 16.1 mph - N/A Rain Light Rain
12:53 PM 57.2 °F 55.4 °F 94% 30.14 in 9.0 mi SE 12.7 mph - N/A   Overcast
1:53 PM 57.2 °F 55.4 °F 94% 30.14 in 10.0 mi SE 13.8 mph - N/A   Overcast
2:53 PM 57.2 °F 55.4 °F 94% 30.14 in 4.0 mi SE 13.8 mph - N/A Rain Light Rain
3:53 PM 59.0 °F 55.4 °F 88% 30.14 in 10.0 mi SE 15.0 mph - N/A   Overcast
4:53 PM 57.9 °F 55.0 °F 90% 30.14 in 8.0 mi ESE 12.7 mph - 0.00 in Rain Light Rain
5:53 PM 57.9 °F 55.9 °F 93% 30.14 in 7.0 mi SE 11.5 mph - 0.00 in   Overcast
6:53 PM 57.9 °F 55.9 °F 93% 30.13 in 3.0 mi SE 11.5 mph - 0.01 in Rain Light Rain
7:53 PM 57.9 °F 55.9 °F 93% 30.12 in 9.0 mi SE 10.4 mph - 0.00 in   Overcast
8:53 PM 57.9 °F 55.9 °F 93% 30.13 in 10.0 mi SE 10.4 mph - N/A   Overcast
9:53 PM 57.0 °F 55.0 °F 93% 30.13 in 9.0 mi ESE 12.7 mph - 0.00 in   Overcast
10:00 PM 57.0 °F 55.0 °F 93% 30.13 in 9.0 mi ESE 11.5 mph - N/A   Overcast
10:10 PM 57.0 °F 55.0 °F 93% 30.13 in 10.0 mi ESE 10.4 mph - N/A   Overcast
10:53 PM 57.0 °F 55.0 °F 93% 30.13 in 10.0 mi SE 8.1 mph - N/A   Overcast
11:53 PM 57.0 °F 55.0 °F 93% 30.13 in 10.0 mi SE 8.1 mph - N/A   Overcast